NIMBUS 2 DEB, 28978

Orbit data source: Space-Track

NIMBUS 2 DEB, 28978 is space debris in SSO originally from a launch on Sun, 15 May 1966 UTC launched from the Air Force Western Test Range (AFWTR). Debris objects in space refer to the collection of defunct objects orbiting the Earth. Examples of debris include non-operational satellites, rocket bodies, and fragments generated from explosions, collisions, or faulty payload assembly.

Loading next visibility...
Identifier
28978, 1966-040AP
Orbit
SSO
Country
Flag of USUS
Related business
Manufacturer
Unknown
Mission
Spacecraft
Bus & Motor
Unknown
Mass
Unknown
Launch date (UTC)
1966-05-15 (60 years ago)
Launch vehicle
Unknown
Launch site
Air Force Western Test Range (AFWTR)
Object type
Payload
Rocket body
Debris
Shape & HBR
Unknown shape, 0.1 m
Radar Cross Section
Small (<0.1 m²)

Expand to show TLE details & history
Last TLE update: 16 hours ago

TLE from 16 hours ago
0 NIMBUS 2 DEB
1 28978U 66040AP  25348.58063657  .00002221  00000-0  34483-2 0  9993
2 28978 100.3771 270.4965 0041331 109.7165  68.9926 13.51797866904971
Epoch: 2025-12-14T13:56Z
TLE epoch observation values (Epoch: 2025-12-14T13:56:06.999Z)
Latitude
0.72689°
Longitude
158.10826°
Altitude
1,057.404 km
Speed
7.329 km/s
True Right ascension
06h 02m 30s
True Declination
0° 43' 22"
Sunlit
Object was in full shadow at epoch
Visualization orbit readout
Latitude
Unknown
Longitude
Unknown
Altitude
Unknown
Speed
Unknown
Apparent Right ascension
Unknown
Apparent Declination
Unknown
Sunlit
N/A
Visualization observer readout
Local Sidereal Time
04:56:37
Azimuth
Unknown
Elevation
Unknown
Doppler factor
Unknown
Orbital elements
Apogee altitude
1,093.741 km
Perigee altitude
1,032.231 km
Semi-major axis
7,441.123 km
Eccentricity
0.00413
Inclination
100.3771°
RAAN
270.4965°
Arg. of periapsis
109.7165°
True anomaly
69.43555°
Mean anomaly
68.9926°
Eccentric anomaly
69.214°
Mean motion
3.38131 °/min
Orbital period
106.47 mins
BSTAR
0.0034483
Loading maneuver chart data...
Computing Atmospheric mass density...
Loading historical data...
Loading historical data...
Loading historical data...
Loading historical data...
Loading historical data...
Loading historical data...
Loading historical data...

Documentation

Showing up to 5 results
|